Location: Limerick
(52.6800°N, 8.6400°W)
Time: 13:32:42
(UTC+00:00)

Amateur Radio Satellites - All Passes

Search period start: 25 March 2017 13:02
Search period end: 26 March 2017 14:02
Location: Limerick, 52.6800°N, 8.6400°W

Satellite Date Start Highest point End Downlink Frequencies (MHz)
Time Altitude Azimuth
RS-15 25 Mar 13:03:28 13:15:04 56° 117° (ESE) 13:26:56 29.354- 29.394
QB50P2 25 Mar 13:05:58 13:06:25 10° 276° (W) 13:06:52 145.880/145.840
SPROUT 25 Mar 13:28:49 13:33:08 73° 287° (WNW) 13:37:25 437.525
Oscar 19 25 Mar 13:31:30 13:36:29 52° 260° (W) 13:41:30 437.125/150
Gurwin Techsat 1B 25 Mar 13:32:46 13:38:06 81° 255° (WSW) 13:43:29 435.225
ITAMSAT 1 25 Mar 13:36:21 13:40:48 29° 59° (ENE) 13:45:15 435.822/435.867
PCSat 25 Mar 13:37:24 13:41:29 21° 343° (NNW) 13:45:35 145.827
BUGSAT 1 25 Mar 13:41:01 13:43:17 14° 273° (W) 13:45:34 437.445
DX 1 25 Mar 13:50:51 13:55:16 90° 313° (NW) 13:59:41 434.975-435.025
50 SAT 25 Mar 14:05:22 14:08:34 33° 293° (WNW) 14:11:45 437.505
BEESAT 25 Mar 14:05:23 14:06:52 11° 84° (E) 14:08:22 436.000
VELOX 1 25 Mar 14:09:02 14:13:00 32° 297° (WNW) 14:16:58 145.980
NO-84 25 Mar 14:17:55 14:20:25 21° 219° (SW) 14:23:02 435.350 FM
AO-7 25 Mar 14:19:28 14:27:41 67° 62° (ENE) 14:35:55 .
ITUPSAT 1 25 Mar 14:19:33 14:22:17 15° 87° (E) 14:25:01 437.325
ESTCUBE 1 25 Mar 14:28:21 14:29:37 11° 310° (NW) 14:30:53 437.505/2401.250
UKube-1 25 Mar 14:34:17 14:38:30 49° 292° (WNW) 14:42:41 .
SPROUT 25 Mar 15:06:27 15:08:19 13° 307° (NW) 15:10:10 437.525
SO-50 25 Mar 15:13:34 15:17:45 34° 121° (ESE) 15:21:54 436.795
ITAMSAT 1 25 Mar 15:14:51 15:20:00 57° 259° (WSW) 15:25:11 435.822/435.867
RS-15 25 Mar 15:15:19 15:27:32 69° 324° (NW) 15:39:57 29.354- 29.394
Gurwin Techsat 1B 25 Mar 15:15:59 15:18:56 15° 275° (W) 15:21:53 435.225
PCSat 25 Mar 15:23:03 15:26:51 19° 9° (N) 15:30:40 145.827
DOVE 4 25 Mar 15:25:18 15:25:39 10° 45° (NE) 15:25:59 437.250
DX 1 25 Mar 15:28:14 15:30:52 16° 306° (NW) 15:33:28 434.975-435.025
BEESAT 25 Mar 15:40:45 15:45:33 72° 104° (ESE) 15:50:17 436.000
ITUPSAT 1 25 Mar 15:56:00 16:00:49 88° 286° (WNW) 16:05:34 437.325
KKS-1 25 Mar 16:03:45 16:06:30 16° 88° (E) 16:09:14 437.445
XW-2C 25 Mar 16:04:22 16:04:46 10° 54° (NE) 16:05:09 145.795 - 145.815
HO-68 25 Mar 16:06:00 16:09:13 14° 33° (NNE) 16:12:29 435.675
MOZHAYETS 4 25 Mar 16:10:47 16:15:21 66° 102° (ESE) 16:19:52
AO-7 25 Mar 16:13:25 16:20:59 38° 264° (W) 16:28:37 .
O/OREOS (USA 219) 25 Mar 16:19:00 16:21:38 15° 99° (E) 16:24:16 437.305
YUBILEINY 25 Mar 16:21:05 16:26:53 19° 45° (NE) 16:32:40 435.215
STARS 25 Mar 16:43:48 16:46:51 18° 90° (E) 16:49:52 437.465
LilacSat-2 25 Mar 16:52:48 16:56:06 28° 65° (ENE) 16:59:23 437.200
SO-50 25 Mar 16:53:35 16:58:06 52° 322° (NW) 17:02:35 436.795
XW-2F 25 Mar 16:54:06 16:57:18 27° 65° (ENE) 17:00:31 145.980 - 146.000
CUTE-I 25 Mar 16:54:16 16:59:11 38° 62° (ENE) 17:04:07 437.470
DOVE 4 25 Mar 16:57:32 17:02:04 45° 66° (ENE) 17:06:53 437.250
CUBESAT XI-V 25 Mar 16:59:05 17:03:27 39° 97° (E) 17:07:49 437.345
PCSat 25 Mar 17:06:49 17:11:49 35° 34° (NE) 17:16:48 145.827
XW-2D 25 Mar 17:18:35 17:22:15 48° 70° (ENE) 17:25:55 145.860 - 145.880
BEESAT 25 Mar 17:19:20 17:22:52 21° 304° (WNW) 17:26:24 436.000
NUDT-PHONESAT 25 Mar 17:23:17 17:26:50 43° 70° (ENE) 17:30:24 437.300
XW-2B 25 Mar 17:24:25 17:28:08 54° 71° (ENE) 17:31:52 145.730 - 145.750
CUTE 1.7 + AOD 2 25 Mar 17:24:50 17:26:28 12° 54° (NE) 17:28:07 437.475
KAITUO 1B 25 Mar 17:28:43 17:32:20 49° 71° (ENE) 17:35:58 145.475/437.950
RS-15 25 Mar 17:30:37 17:42:28 48° 356° (N) 17:54:16 29.354- 29.394
XW-2C 25 Mar 17:34:28 17:38:15 69° 74° (ENE) 17:42:03 145.795 - 145.815
ITUPSAT 1 25 Mar 17:34:57 17:38:01 17° 307° (NW) 17:41:02 437.325
KKS-1 25 Mar 17:39:07 17:43:37 78° 289° (WNW) 17:48:06 437.445
HO-68 25 Mar 17:48:38 17:55:09 40° 56° (ENE) 18:01:42 435.675
MOZHAYETS 4 25 Mar 17:48:42 17:52:07 21° 302° (WNW) 17:55:31
O/OREOS (USA 219) 25 Mar 17:55:50 18:00:23 85° 300° (WNW) 18:05:01 437.305
XW-2A 25 Mar 17:57:46 18:00:27 21° 64° (ENE) 18:03:09 145.665 - 145.685
UWE-3 25 Mar 17:59:08 18:00:05 11° 50° (NE) 18:01:02 435.000/436.395/437.385
YUBILEINY 25 Mar 18:17:19 18:25:57 60° 72° (ENE) 18:34:32 435.215
STARS 25 Mar 18:19:13 18:23:40 67° 288° (WNW) 18:28:02 437.465
CUBEBUG 2 25 Mar 18:26:29 18:30:18 24° 61° (ENE) 18:34:05 437.445
LilacSat-2 25 Mar 18:26:50 18:30:19 33° 264° (W) 18:33:49 437.200
XW-2F 25 Mar 18:27:54 18:31:23 34° 264° (W) 18:34:51 145.980 - 146.000
CUTE-I 25 Mar 18:34:05 18:39:12 43° 262° (W) 18:44:20 437.470
DOVE 4 25 Mar 18:35:44 18:39:56 31° 268° (W) 18:44:23 437.250
SO-50 25 Mar 18:35:58 18:39:31 21° 345° (NNW) 18:43:02 436.795
CUBESAT XI-V 25 Mar 18:36:38 18:40:47 33° 296° (WNW) 18:44:55 437.345
Oscar 11 25 Mar 18:37:55 18:38:56 11° 51° (NE) 18:39:55 .
ZACube-1 25 Mar 18:41:12 18:43:41 15° 55° (NE) 18:46:08 437.345
AAUSAT CUBESAT 2 25 Mar 18:42:44 18:45:52 21° 61° (ENE) 18:49:01 437.432
PCSat 25 Mar 18:50:12 18:55:37 66° 237° (WSW) 19:00:59 145.827
SEEDS 25 Mar 18:53:17 18:57:16 46° 69° (ENE) 19:01:16 437.485
XW-2D 25 Mar 18:53:57 18:56:42 19° 269° (W) 18:59:28 145.860 - 145.880
STRAND 1 25 Mar 18:56:03 18:59:40 19° 89° (E) 19:03:14 437.568
CUTE 1.7 + AOD 2 25 Mar 18:57:23 19:01:35 72° 73° (ENE) 19:05:48 437.475
NUDT-PHONESAT 25 Mar 18:58:08 19:00:58 20° 268° (W) 19:03:49 437.300
XW-2B 25 Mar 19:00:06 19:02:40 17° 270° (W) 19:05:13 145.730 - 145.750
KAITUO 1B 25 Mar 19:04:01 19:06:38 18° 269° (W) 19:09:16 145.475/437.950
M-CUBED/EXP-1 PRIME 25 Mar 19:06:46 19:11:16 53° 107° (ESE) 19:15:50 437.505
AO-73 25 Mar 19:09:12 19:12:39 22° 60° (ENE) 19:16:04 145.935
XW-2C 25 Mar 19:10:57 19:12:55 14° 272° (W) 19:14:53 145.795 - 145.815
KKS-1 25 Mar 19:17:05 19:19:29 14° 307° (NW) 19:21:52 437.445
XW-2A 25 Mar 19:29:49 19:33:03 36° 262° (W) 19:36:18 145.665 - 145.685
UWE-3 25 Mar 19:31:03 19:35:36 53° 70° (ENE) 19:40:04 435.000/436.395/437.385
HO-68 25 Mar 19:35:40 19:42:41 59° 258° (WSW) 19:49:47 435.675
O/OREOS (USA 219) 25 Mar 19:37:15 19:40:31 19° 321° (NW) 19:43:50 437.305
RS-15 25 Mar 19:45:26 19:57:44 61° 29° (NNE) 20:09:40 29.354- 29.394
STARS 25 Mar 19:57:19 19:59:12 13° 309° (NW) 20:01:04 437.465
CUBEBUG 2 25 Mar 20:01:54 20:06:36 59° 259° (W) 20:11:17 437.445
Oscar 11 25 Mar 20:09:57 20:14:12 60° 71° (ENE) 20:18:28 .
DELFI C3 25 Mar 20:13:31 20:16:38 23° 62° (ENE) 20:19:47 145.870
YUBILEINY 25 Mar 20:14:35 20:22:28 41° 275° (W) 20:30:22 435.215
ZACube-1 25 Mar 20:14:46 20:19:19 82° 72° (ENE) 20:23:49 437.345
AAUSAT CUBESAT 2 25 Mar 20:17:02 20:21:03 52° 260° (W) 20:25:05 437.432
SO-50 25 Mar 20:18:07 20:21:28 19° 9° (N) 20:24:46 436.795
SEEDS 25 Mar 20:29:51 20:33:11 23° 268° (W) 20:36:32 437.485
STRAND 1 25 Mar 20:34:18 20:39:27 78° 288° (WNW) 20:44:33 437.568
CUTE 1.7 + AOD 2 25 Mar 20:35:25 20:37:55 15° 272° (W) 20:40:26 437.475
PCSat 25 Mar 20:35:34 20:38:00 13° 257° (WSW) 20:40:28 145.827
M-CUBED/EXP-1 PRIME 25 Mar 20:41:36 20:45:28 28° 305° (NW) 20:49:25 437.505
AO-73 25 Mar 20:44:04 20:48:33 60° 259° (WSW) 20:52:59 145.935
AO-85 25 Mar 20:55:54 20:59:17 23° 118° (ESE) 21:02:32 145.980
UWE-3 25 Mar 21:08:33 21:12:19 24° 268° (W) 21:16:05 435.000/436.395/437.385
PRISM 25 Mar 21:22:08 21:25:10 19° 91° (E) 21:28:11 437.425
HO-68 25 Mar 21:28:56 21:32:02 13° 280° (W) 21:35:09 435.675
ISS 25 Mar 21:33:41 21:35:58 18° 144° (SE) 21:38:15 437.550
TIGRISAT 25 Mar 21:39:08 21:41:52 16° 87° (E) 21:44:33 435.000
Tancredo 1 25 Mar 21:39:14 21:41:37 20° 147° (SSE) 21:44:02 437.200
DELFI C3 25 Mar 21:47:29 21:51:14 43° 262° (W) 21:55:01 145.870
Oscar 11 25 Mar 21:47:37 21:50:43 19° 270° (W) 21:53:51 .
UNISAT 6 25 Mar 21:48:30 21:51:52 20° 90° (E) 21:55:08 437.425
ZACube-1 25 Mar 21:53:30 21:56:09 15° 273° (W) 21:58:48 437.345
RS-15 25 Mar 21:58:37 22:10:49 69° 238° (WSW) 22:22:31 29.354- 29.394
SO-50 25 Mar 21:58:47 22:03:03 39° 33° (NNE) 22:07:17 436.795
VELOX 1 25 Mar 22:01:47 22:03:44 13° 51° (NE) 22:05:41 145.980
LO-87 25 Mar 22:09:08 22:12:35 46° 71° (ENE) 22:16:06 145.935 - 145.965
FO-29 25 Mar 22:12:40 22:17:47 25° 88° (E) 22:22:24 435.910
STRAND 1 25 Mar 22:14:42 22:17:53 17° 309° (NW) 22:21:02 437.568
ESTCUBE 1 25 Mar 22:17:56 22:22:05 38° 66° (ENE) 22:26:15 437.505/2401.250
BEESAT 3 25 Mar 22:22:37 22:25:21 18° 115° (ESE) 22:28:06 437.485
AO-85 25 Mar 22:35:09 22:39:23 64° 317° (NW) 22:43:24 145.980
BEESAT 2 25 Mar 22:37:21 22:38:36 11° 110° (ESE) 22:39:51 435.950
AIST 2D 25 Mar 22:50:02 22:50:58 11° 87° (E) 22:51:54 435.315
SPROUT 25 Mar 22:52:36 22:56:11 26° 62° (ENE) 22:59:47 437.525
PRISM 25 Mar 22:56:42 23:00:47 56° 290° (WNW) 23:04:52 437.425
POLYITAN 1 25 Mar 23:02:17 23:03:16 11° 85° (E) 23:04:15 437.675
QB50P2 25 Mar 23:06:03 23:07:58 13° 86° (E) 23:09:51 145.880/145.840
ISS 25 Mar 23:08:45 23:11:57 53° 164° (SSE) 23:15:11 437.550
50 SAT 25 Mar 23:11:45 23:14:35 24° 64° (ENE) 23:17:26 437.505
Tancredo 1 25 Mar 23:14:13 23:17:21 57° 166° (SSE) 23:20:31 437.200
TIGRISAT 25 Mar 23:14:39 23:19:09 75° 287° (WNW) 23:23:30 435.000
DX 1 25 Mar 23:16:44 23:20:17 25° 60° (ENE) 23:23:52 434.975-435.025
DUCHIFAT 1 25 Mar 23:19:48 23:21:55 13° 87° (E) 23:24:02 145.980
UNISAT 6 25 Mar 23:24:33 23:28:59 58° 290° (WNW) 23:33:15 437.425
VELOX 1 25 Mar 23:35:01 23:39:24 70° 71° (ENE) 23:43:51 145.980
SO-50 25 Mar 23:39:18 23:43:39 49° 235° (SW) 23:47:59 436.795
LO-87 25 Mar 23:43:47 23:46:19 18° 269° (W) 23:48:51 145.935 - 145.965
ESTCUBE 1 25 Mar 23:54:59 23:58:58 31° 265° (W) 00:02:59 437.505/2401.250
FO-29 25 Mar 23:57:12 00:03:34 68° 292° (WNW) 00:09:10 435.910
UKube-1 25 Mar 23:58:24 00:02:27 41° 66° (ENE) 00:06:33 .
BEESAT 3 25 Mar 23:58:32 00:02:30 74° 315° (NW) 00:06:32 437.485
NANOSAT C BR1 26 Mar 00:03:59 00:07:56 36° 97° (E) 00:11:51 145.865
EO-79 26 Mar 00:07:48 00:11:53 43° 98° (E) 00:15:55 145.935-145.965
BEESAT 2 26 Mar 00:11:40 00:15:38 72° 130° (SE) 00:19:40 435.950
RS-15 26 Mar 00:12:31 00:20:54 22° 263° (W) 00:29:06 29.354- 29.394
AO-85 26 Mar 00:17:23 00:20:29 20° 339° (NNW) 00:23:30 145.980
AIST 2D 26 Mar 00:21:11 00:24:42 75° 285° (WNW) 00:28:10 435.315
SPROUT 26 Mar 00:27:46 00:31:55 45° 261° (W) 00:36:05 437.525
POLYITAN 1 26 Mar 00:35:32 00:39:49 79° 103° (ESE) 00:44:03 437.675
QB50P2 26 Mar 00:40:06 00:44:24 88° 281° (W) 00:48:39 145.880/145.840
O/OREOS (USA 219) 26 Mar 00:41:59 00:45:17 19° 39° (NE) 00:48:34 437.305
50 SAT 26 Mar 00:44:25 00:47:32 31° 263° (W) 00:50:42 437.505
ISS 26 Mar 00:45:02 00:48:19 75° 184° (S) 00:51:37 437.550
Tancredo 1 26 Mar 00:50:13 00:53:24 72° 186° (S) 00:56:37 437.200
DX 1 26 Mar 00:52:01 00:56:15 49° 260° (W) 02:00:31 434.975-435.025
TIGRISAT 26 Mar 00:52:52 00:55:04 14° 308° (NW) 00:57:14 435.000
DUCHIFAT 1 26 Mar 00:53:56 00:58:12 83° 286° (WNW) 02:02:24 145.980
UNISAT 6 26 Mar 02:03:33 02:04:45 11° 310° (NW) 02:05:56 437.425
VELOX 1 26 Mar 02:13:25 02:16:21 17° 271° (W) 02:19:19 145.980
BUGSAT 1 26 Mar 02:14:13 02:18:25 61° 102° (ESE) 02:22:31 437.445
BEESAT 26 Mar 02:16:08 02:20:08 27° 60° (ENE) 02:24:09 436.000
ITUPSAT 1 26 Mar 02:31:17 02:35:36 35° 63° (ENE) 02:39:56 437.325
UKube-1 26 Mar 02:34:56 02:38:38 27° 265° (W) 02:42:22 .
Oscar 19 26 Mar 02:36:46 02:41:32 36° 96° (E) 02:46:17 437.125/150
BEESAT 3 26 Mar 02:37:36 02:40:44 21° 337° (NNW) 02:43:54 437.485
NANOSAT C BR1 26 Mar 02:39:52 02:43:35 30° 296° (WNW) 02:47:17 145.865
MOZHAYETS 4 26 Mar 02:42:40 02:46:03 21° 58° (ENE) 02:49:27
Gurwin Techsat 1B 26 Mar 02:43:16 02:47:42 26° 92° (E) 02:52:08 435.225
FO-29 26 Mar 02:43:22 02:47:26 18° 315° (NW) 02:51:13 435.910
EO-79 26 Mar 02:43:54 02:47:29 27° 298° (WNW) 02:51:03 145.935-145.965
BEESAT 2 26 Mar 02:50:19 02:53:47 27° 331° (NNW) 02:57:17 435.950
AO-85 26 Mar 02:59:56 03:02:17 15° 4° (N) 03:04:34 145.980
POLYITAN 1 26 Mar 03:12:23 03:15:05 17° 304° (WNW) 03:17:46 437.675
AO-7 26 Mar 03:16:40 03:20:10 13° 80° (E) 03:23:37 .
QB50P2 26 Mar 03:17:13 03:19:34 15° 305° (NW) 03:21:56 145.880/145.840
O/OREOS (USA 219) 26 Mar 03:20:47 03:25:26 82° 60° (ENE) 03:30:03 437.305
ISS 26 Mar 03:21:31 03:24:37 38° 203° (SSW) 03:27:42 437.550
Tancredo 1 26 Mar 03:26:24 03:29:20 33° 205° (SSW) 03:32:16 437.200
DUCHIFAT 1 26 Mar 03:31:04 03:33:13 14° 306° (NW) 03:35:21 145.980
CUBESAT XI-V 26 Mar 03:33:31 03:35:49 14° 53° (NE) 03:38:09 437.345
BUGSAT 1 26 Mar 03:50:19 03:53:24 20° 301° (WNW) 03:56:27 437.445
BEESAT 26 Mar 03:53:01 03:57:41 52° 259° (W) 04:02:23 436.000
KKS-1 26 Mar 04:06:51 04:10:46 30° 62° (ENE) 04:14:41 437.445
ITUPSAT 1 26 Mar 04:08:53 04:13:23 40° 262° (W) 04:17:55 437.325
Oscar 19 26 Mar 04:16:06 04:20:57 42° 295° (WNW) 04:25:47 437.125/150
BEESAT 3 26 Mar 04:17:22 04:19:41 15° 1° (N) 04:22:00 437.485
MOZHAYETS 4 26 Mar 04:18:13 04:22:48 68° 257° (WSW) 04:27:24
ITAMSAT 1 26 Mar 04:21:40 04:26:21 33° 95° (E) 04:31:00 435.822/435.867
Gurwin Techsat 1B 26 Mar 04:22:47 04:28:03 60° 292° (WNW) 04:33:16 435.225
BEESAT 2 26 Mar 04:30:22 04:32:48 15° 355° (N) 04:35:13 435.950
AO-85 26 Mar 04:40:31 04:43:55 26° 29° (NNE) 04:47:17 145.980
STARS 26 Mar 04:45:30 04:49:28 33° 64° (ENE) 04:53:29 437.465
ISS 26 Mar 04:59:32 05:00:25 11° 221° (SW) 05:01:16 437.550
O/OREOS (USA 219) 26 Mar 05:01:25 05:04:15 16° 260° (W) 05:07:03 437.305
AO-7 26 Mar 05:06:50 05:14:58 55° 102° (ESE) 05:23:03 .
CUBESAT XI-V 26 Mar 05:07:52 05:12:27 74° 73° (ENE) 05:17:04 437.345
M-CUBED/EXP-1 PRIME 26 Mar 05:24:55 05:28:04 24° 53° (NE) 05:31:26 437.505
STRAND 1 26 Mar 05:42:34 05:44:07 11° 45° (NE) 05:45:40 437.568
KKS-1 26 Mar 05:42:59 05:47:12 41° 262° (W) 05:51:30 437.445
BEESAT 3 26 Mar 05:55:22 05:58:37 22° 24° (NNE) 06:01:51 437.485
MOZHAYETS 4 26 Mar 06:00:22 06:00:51 10° 277° (W) 06:01:20
ITAMSAT 1 26 Mar 06:01:01 06:06:00 46° 295° (WNW) 06:10:56 435.822/435.867
Gurwin Techsat 1B 26 Mar 06:04:21 06:07:00 14° 313° (NW) 06:09:39 435.225
BEESAT 2 26 Mar 06:09:01 06:11:59 19° 19° (NNE) 06:14:57 435.950
AO-85 26 Mar 06:20:44 06:24:39 69° 230° (SW) 06:28:36 145.980
STARS 26 Mar 06:21:41 06:25:47 36° 263° (W) 06:29:55 437.465
YUBILEINY 26 Mar 06:35:33 06:39:14 13° 66° (ENE) 06:42:55 435.215
CUBESAT XI-V 26 Mar 06:47:22 06:50:23 17° 272° (W) 06:53:24 437.345
LilacSat-2 26 Mar 06:54:24 06:57:04 18° 91° (E) 06:59:42 437.200
XW-2F 26 Mar 06:54:36 06:57:06 17° 90° (E) 06:59:34 145.980 - 146.000
M-CUBED/EXP-1 PRIME 26 Mar 06:58:37 07:02:16 48° 254° (WSW) 07:06:16 437.505
AO-7 26 Mar 06:59:53 07:07:44 49° 305° (NW) 07:15:33 .
STRAND 1 26 Mar 07:17:14 07:22:10 48° 66° (ENE) 07:27:08 437.568
XW-2D 26 Mar 07:19:25 07:22:49 31° 96° (E) 07:26:10 145.860 - 145.880
NUDT-PHONESAT 26 Mar 07:21:57 07:25:06 26° 94° (E) 07:28:14 437.300
XW-2B 26 Mar 07:25:17 07:28:46 34° 96° (E) 07:32:12 145.730 - 145.750
DOVE 4 26 Mar 07:27:19 07:32:34 55° 100° (E) 07:37:45 437.250
KAITUO 1B 26 Mar 07:28:08 07:31:27 30° 96° (E) 07:34:44 145.475/437.950
BEESAT 3 26 Mar 07:32:45 07:36:48 80° 46° (NE) 07:40:50 437.485
XW-2C 26 Mar 07:35:21 07:38:59 44° 99° (E) 07:42:34 145.795 - 145.815
ITAMSAT 1 26 Mar 07:42:52 07:44:17 11° 316° (NW) 07:45:42 435.822/435.867
CUTE-I 26 Mar 07:44:35 07:49:48 49° 99° (E) 07:54:58 437.470
BEESAT 2 26 Mar 07:46:34 07:50:35 54° 41° (NE) 07:54:34 435.950
FO-29 26 Mar 07:52:47 07:53:13 10° 33° (NNE) 07:53:39 435.910
HO-68 26 Mar 07:57:12 08:02:35 22° 87° (E) 08:07:55 435.675
AO-85 26 Mar 08:03:54 08:04:18 10° 249° (WSW) 08:04:41 145.980
NO-84 26 Mar 08:17:49 08:19:39 16° 138° (SE) 08:21:30 435.350 FM
YUBILEINY 26 Mar 08:25:33 08:33:57 55° 90° (E) 08:42:20 435.215
XW-2F 26 Mar 08:27:55 08:31:34 52° 289° (WNW) 08:35:12 145.980 - 146.000
LilacSat-2 26 Mar 08:27:58 08:31:38 49° 289° (WNW) 08:35:16 437.200
CUBEBUG 2 26 Mar 08:47:29 08:50:52 21° 89° (E) 08:54:10 437.445
AO-7 26 Mar 08:53:24 08:58:41 19° 329° (NNW) 09:03:58 .
XW-2D 26 Mar 08:53:43 08:56:58 28° 295° (WNW) 09:00:13 145.860 - 145.880
AAUSAT CUBESAT 2 26 Mar 08:53:49 08:56:32 17° 89° (E) 08:59:16 437.432
NUDT-PHONESAT 26 Mar 08:55:45 08:59:05 32° 293° (WNW) 09:02:22 437.300
STRAND 1 26 Mar 08:57:01 09:01:34 31° 266° (W) 09:06:08 437.568
XW-2B 26 Mar 08:59:42 09:02:52 26° 296° (WNW) 09:06:01 145.730 - 145.750
ZACube-1 26 Mar 08:59:54 09:00:36 10° 83° (E) 09:01:18 437.345
KAITUO 1B 26 Mar 09:02:14 09:05:26 28° 295° (WNW) 09:08:37 145.475/437.950
DOVE 4 26 Mar 09:05:24 09:09:59 30° 299° (WNW) 09:14:33 437.250
SEEDS 26 Mar 09:06:28 09:10:26 39° 97° (E) 09:14:22 437.485
XW-2C 26 Mar 09:10:04 09:12:57 21° 298° (WNW) 09:15:49 145.795 - 145.815
BEESAT 3 26 Mar 09:11:17 09:13:55 17° 245° (WSW) 09:16:31 437.485
CUTE 1.7 + AOD 2 26 Mar 09:11:53 09:16:06 64° 102° (ESE) 09:20:17 437.475
PRISM 26 Mar 09:16:43 09:20:18 30° 63° (ENE) 09:23:54 437.425
XW-2A 26 Mar 09:18:23 09:21:48 81° 288° (WNW) 09:25:11 145.665 - 145.685
BEESAT 2 26 Mar 09:24:43 09:28:08 26° 241° (WSW) 09:31:32 435.950
CUTE-I 26 Mar 09:24:56 09:29:43 34° 299° (WNW) 09:34:27 437.470
AO-73 26 Mar 09:26:57 09:29:49 17° 89° (E) 09:32:39 145.935
FO-29 26 Mar 09:29:49 09:36:16 31° 55° (NE) 09:42:17 435.910
TIGRISAT 26 Mar 09:42:37 09:46:41 30° 63° (ENE) 09:50:43 435.000
HO-68 26 Mar 09:44:05 09:51:19 88° 111° (ESE) 09:58:30 435.675
UWE-3 26 Mar 09:51:07 09:55:24 49° 99° (E) 09:59:32 435.000/436.395/437.385
UNISAT 6 26 Mar 09:52:17 09:56:36 37° 65° (ENE) 10:00:53 437.425
NO-84 26 Mar 09:53:55 09:56:46 79° 157° (SSE) 09:59:42 435.350 FM
DELFI C3 26 Mar 10:19:13 10:21:48 16° 89° (E) 10:24:22 145.870
YUBILEINY 26 Mar 10:22:41 10:31:00 46° 294° (WNW) 10:39:20 435.215
CUBEBUG 2 26 Mar 10:23:28 10:27:54 56° 290° (WNW) 10:32:08 437.445
Oscar 11 26 Mar 10:27:05 10:31:19 54° 100° (E) 10:35:32 .
AAUSAT CUBESAT 2 26 Mar 10:28:19 10:32:26 64° 288° (WNW) 10:36:32 437.432
NANOSAT C BR1 26 Mar 10:29:47 10:30:36 10° 51° (NE) 10:31:24 145.865
AIST 2D 26 Mar 10:30:18 10:31:42 12° 58° (ENE) 10:33:05 435.315
EO-79 26 Mar 10:33:01 10:34:40 12° 52° (NE) 10:36:19 145.935-145.965
ZACube-1 26 Mar 10:33:24 10:37:43 77° 105° (ESE) 10:41:54 437.345
PCSat 26 Mar 10:37:50 10:42:38 33° 114° (ESE) 10:47:28 145.827
SEEDS 26 Mar 10:42:26 10:46:01 28° 296° (WNW) 10:49:35 437.485
AO-7 26 Mar 10:46:04 10:48:17 11° 357° (N) 10:50:31 .
CUTE 1.7 + AOD 2 26 Mar 10:48:33 10:51:32 19° 301° (WNW) 10:54:31 437.475
PRISM 26 Mar 10:51:48 10:55:32 34° 263° (W) 10:59:19 437.425
POLYITAN 1 26 Mar 10:59:16 11:02:19 19° 58° (ENE) 11:05:23 437.675
AO-73 26 Mar 11:02:16 11:06:31 62° 288° (WNW) 11:10:38 145.935
QB50P2 26 Mar 11:03:34 11:06:51 22° 60° (ENE) 11:10:09 145.880/145.840
FO-29 26 Mar 11:12:55 11:20:44 82° 254° (WSW) 11:27:59 435.910
DUCHIFAT 1 26 Mar 11:16:34 11:19:55 23° 60° (ENE) 11:23:15 145.980
TIGRISAT 26 Mar 11:18:44 11:23:14 44° 262° (W) 11:27:43 435.000
RS-15 26 Mar 11:27:43 11:30:30 11° 86° (E) 11:33:18 29.354- 29.394
UWE-3 26 Mar 11:28:04 11:31:36 24° 299° (WNW) 11:35:03 435.000/436.395/437.385
UNISAT 6 26 Mar 11:29:03 11:33:20 35° 264° (W) 11:37:36 437.425
NO-84 26 Mar 11:31:34 11:34:25 51° 359° (N) 11:37:26 435.350 FM
HO-68 26 Mar 11:32:29 11:38:20 28° 311° (NW) 11:44:10 435.675
BUGSAT 1 26 Mar 11:36:05 11:38:32 15° 55° (NE) 11:40:59 437.445
DELFI C3 26 Mar 11:53:02 11:56:58 61° 288° (WNW) 12:00:55 145.870
AIST 2D 26 Mar 12:00:50 12:04:23 83° 256° (WSW) 12:07:57 435.315
NANOSAT C BR1 26 Mar 12:01:15 12:05:27 58° 70° (ENE) 12:09:40 145.865
CUBEBUG 2 26 Mar 12:02:31 12:03:32 11° 311° (NW) 12:04:32 437.445
Oscar 11 26 Mar 12:03:49 12:07:10 22° 300° (WNW) 12:10:31 .
LO-87 26 Mar 12:03:52 12:06:59 26° 94° (E) 12:10:06 145.935 - 145.965
EO-79 26 Mar 12:05:25 12:09:40 69° 72° (ENE) 12:13:57 145.935-145.965
AAUSAT CUBESAT 2 26 Mar 12:06:10 12:07:06 11° 308° (NW) 12:08:03 437.432
ZACube-1 26 Mar 12:10:44 12:13:28 17° 303° (WNW) 12:16:09 437.345
PCSat 26 Mar 12:20:28 12:25:49 58° 315° (NW) 12:31:13 145.827
Oscar 19 26 Mar 12:22:21 12:25:53 19° 53° (NE) 12:29:26 437.125/150
YUBILEINY 26 Mar 12:26:11 12:30:42 15° 322° (NW) 12:35:14 435.215
Gurwin Techsat 1B 26 Mar 12:33:04 12:36:13 16° 50° (NE) 12:39:23 435.225
AO-7 26 Mar 12:33:15 12:37:44 16° 24° (NNE) 12:42:12 .
POLYITAN 1 26 Mar 12:33:25 12:37:41 66° 257° (WSW) 12:42:00 437.675
QB50P2 26 Mar 12:38:06 12:42:20 56° 259° (W) 12:46:34 145.880/145.840
ESTCUBE 1 26 Mar 12:40:43 12:44:54 36° 97° (E) 12:49:04 437.505/2401.250
AO-73 26 Mar 12:40:50 12:41:53 11° 309° (NW) 12:42:57 145.935
DUCHIFAT 1 26 Mar 12:51:08 12:55:18 53° 260° (W) 12:59:30 145.980
FO-29 26 Mar 13:01:00 13:06:41 22° 274° (W) 13:12:07 435.910
50 SAT 26 Mar 13:04:01 13:05:18 12° 88° (E) 13:06:35 437.505
SPROUT 26 Mar 13:07:50 13:11:07 21° 91° (E) 13:14:22 437.525
BUGSAT 1 26 Mar 13:09:02 13:13:18 89° 252° (WSW) 13:17:35 437.445
NO-84 26 Mar 13:09:08 13:12:08 86° 21° (NNE) 13:15:21 435.350 FM
HO-68 26 Mar 13:23:11 13:23:47 10° 335° (NNW) 13:24:24 435.675
RS-15 26 Mar 13:28:13 13:39:21 46° 112° (ESE) 13:50:44 29.354- 29.394
DX 1 26 Mar 13:34:39 13:37:49 19° 91° (E) 13:40:59 434.975-435.025
LO-87 26 Mar 13:37:11 13:40:29 32° 293° (WNW) 13:43:46 145.935 - 145.965
NANOSAT C BR1 26 Mar 13:38:26 13:41:32 19° 270° (W) 13:44:38 145.865
EO-79 26 Mar 13:43:08 13:45:54 17° 271° (W) 13:48:41 145.935-145.965
